Stations météo

réclame
Mon MeteoGroup
Tain Range, Grande-Bretagne (3062): Température de l'air & dewpoint: 16.09.2018 06:00:00 - 22.09.2018 06:00:00 (BST)Tain Range, Grande-Bretagne (3062): Température de l'air -20cm & Température de l'air -100cm: 16.09.2018 06:00:00 - 22.09.2018 06:00:00 (BST)Tain Range, Grande-Bretagne (3062): Vitesse du vent & gusts: 16.09.2018 06:00:00 - 22.09.2018 06:00:00 (BST)Tain Range, Grande-Bretagne (3062): Direction du vent: 16.09.2018 06:00:00 - 22.09.2018 06:00:00 (BST)Tain Range, Grande-Bretagne (3062): reduced air pressure: 16.09.2018 06:00:00 - 22.09.2018 06:00:00 (BST)Tain Range, Grande-Bretagne (3062): visibility: 16.09.2018 06:00:00 - 22.09.2018 06:00:00 (BST)Tain Range, Grande-Bretagne (3062): Quantités de précipitations: 16.09.2018 06:00:00 - 22.09.2018 06:00:00 (BST)
Date & Time tt [°C] td [°C] tt -20cm [°C] tt -100cm [°C] ff [km/h] ff [knt] fx [km/h] fx [knt] dd ppp [hPa] vv [km] rr [mm]
22.09.2018 06:00:00 8,8 3,3 - - 26 14 52 28 WSW 1005,5 50 0,0
22.09.2018 05:00:00 8,7 3,6 - - 26 14 54 29 WSW 1005,1 50 0,0
22.09.2018 04:00:00 8,8 3,0 - - 24 13 - - W 1005,3 45 0,0
22.09.2018 03:00:00 8,8 3,4 - - 24 13 - - W 1005,0 35 0,0
22.09.2018 02:00:00 7,8 3,7 - - 21 11 57 31 SW 1004,6 50 0,0
22.09.2018 01:00:00 9,1 3,8 - - 29 16 - - W 1004,2 35 0,0
22.09.2018 00:00:00 8,1 3,9 - - 29 16 - - WSW 1003,7 50 0,0
21.09.2018 23:00:00 6,8 3,5 - - 21 11 - - SSW 1003,7 50 0,0
21.09.2018 22:00:00 7,7 4,0 - - 15 8 - - WSW 1003,4 50 0,0
21.09.2018 21:00:00 7,4 4,5 - - 11 6 - - W 1003,2 45 0,0
21.09.2018 20:00:00 7,6 4,4 - - 18 10 - - SSW 1002,5 50 0,0
21.09.2018 19:00:00 9,2 4,9 - - 18 10 - - WSW 1002,0 45 0,0
21.09.2018 18:00:00 10,1 5,2 - - 28 15 61 33 W 1001,8 50 0,0
21.09.2018 17:00:00 11,8 3,8 - - 35 19 50 27 WNW 1000,5 35 0,0
21.09.2018 16:00:00 12,1 6,1 - - 29 16 48 26 W 1000,1 35 0,0
21.09.2018 15:00:00 11,0 3,1 - - 35 19 50 27 NW 998,9 40 0,0
21.09.2018 14:00:00 11,7 5,3 - - 37 20 48 26 NW 997,8 30 0,0
21.09.2018 13:00:00 10,0 4,9 - - 34 18 54 29 NW 996,9 45 0,0
21.09.2018 12:00:00 10,0 6,5 - - 29 16 - - NW 995,4 35 0,0
21.09.2018 11:00:00 8,9 7,4 - - 22 12 - - WNW 994,3 35 0,0
21.09.2018 10:00:00 8,4 6,9 11,9 11,9 24 13 - - NW 993,3 35 0,6
21.09.2018 09:00:00 7,8 6,5 - - 26 14 - - WNW 992,4 9 2,2
21.09.2018 08:00:00 7,9 6,0 - - 26 14 - - NW 991,5 14 0,0
21.09.2018 07:00:00 8,7 7,1 - - 26 14 - - WNW 991,0 50 0,0
21.09.2018 06:00:00 7,9 6,8 - - 15 8 - - W 991,1 40 0,0
21.09.2018 05:00:00 7,8 6,5 - - 13 7 - - W 991,5 23 0,4
21.09.2018 04:00:00 7,3 6,9 - - 8 4 - - W 992,3 11 2,8
21.09.2018 03:00:00 7,2 6,4 - - 4 2 - - WNW 993,2 8 1,2
21.09.2018 02:00:00 7,2 6,2 - - 2 1 - - W 994,0 11 0,6
21.09.2018 01:00:00 7,0 5,8 - - 2 1 - - W 994,3 35 0,0
21.09.2018 00:00:00 7,2 6,0 - - 5 3 - - SW 995,2 40 0,0
20.09.2018 23:00:00 7,8 5,9 - - 4 2 - - SSW 996,1 40 0,0
20.09.2018 22:00:00 7,6 5,8 - - 4 2 - - SE 996,4 29 0,0
20.09.2018 21:00:00 8,7 5,9 - - 5 3 - - SW 997,3 40 0,0
20.09.2018 20:00:00 9,4 5,7 - - 8 4 - - NNW 997,5 25 0,0
20.09.2018 19:00:00 11,4 5,4 - - 15 8 - - WSW 998,1 35 0,0
20.09.2018 18:00:00 12,2 5,6 - - 15 8 - - SW 998,7 29 0,0
20.09.2018 17:00:00 13,1 5,5 - - 22 12 46 25 W 998,8 45 0,0
20.09.2018 16:00:00 13,1 5,7 - - 34 18 50 27 WSW 998,4 30 0,0
20.09.2018 15:00:00 14,4 6,0 - - 35 19 55 30 WSW 998,7 40 0,0
20.09.2018 14:00:00 14,4 6,7 - - 34 18 65 35 WSW 998,5 30 0,0
20.09.2018 13:00:00 13,1 5,4 - - 42 23 76 41 WSW 997,7 45 0,0
20.09.2018 12:00:00 13,0 4,7 - - 41 22 74 40 WSW 997,0 45 0,0
20.09.2018 11:00:00 13,3 5,2 - - 42 23 68 37 SW 996,0 30 0,0
20.09.2018 10:00:00 12,6 6,2 12,0 12,0 29 16 59 32 SSW 996,0 30 0,0
20.09.2018 09:00:00 10,4 5,2 - - 39 21 59 32 SW 995,8 40 0,0
20.09.2018 08:00:00 9,4 5,2 - - 37 20 57 31 SW 995,5 30 0,0
20.09.2018 07:00:00 8,8 5,2 - - 24 13 52 28 SW 995,6 40 0,0
20.09.2018 06:00:00 8,6 5,5 - - 21 11 - - SW 994,9 45 0,0
20.09.2018 05:00:00 8,2 6,0 - - 16 9 - - SSW 995,3 29 0,6
20.09.2018 04:00:00 8,7 6,4 - - 22 12 - - SW 995,1 12 0,0
20.09.2018 03:00:00 8,8 6,2 - - 22 12 - - SW 994,6 45 0,0
20.09.2018 02:00:00 8,1 5,7 - - 16 9 48 26 SW 994,4 29 0,2
20.09.2018 01:00:00 8,5 5,4 - - 16 9 - - SW 993,8 50 0,0
20.09.2018 00:00:00 8,2 5,3 - - 28 15 54 29 SSW 993,5 50 0,0
19.09.2018 23:00:00 8,5 6,1 - - 39 21 50 27 SW 993,1 40 0,0
19.09.2018 22:00:00 8,6 6,2 - - 22 12 46 25 SW 992,5 40 0,0
19.09.2018 21:00:00 8,1 6,3 - - 34 18 50 27 SSW 991,7 35 0,2
19.09.2018 20:00:00 9,0 6,8 - - 37 20 52 28 SW 990,5 40 0,4
19.09.2018 19:00:00 10,4 5,8 - - 35 19 57 31 SW 989,1 50 0,0
19.09.2018 18:00:00 12,0 5,4 - - 42 23 65 35 WSW 987,4 40 0,0
19.09.2018 17:00:00 11,9 5,9 - - 54 29 85 46 W 985,1 27 0,0
19.09.2018 16:00:00 11,7 7,1 - - 59 32 96 52 WSW 980,9 45 0,0
19.09.2018 15:00:00 12,9 10,4 - - 26 14 - - SSW 978,4 40 0,0
19.09.2018 14:00:00 12,0 9,8 - - 28 15 - - SW 978,7 40 0,4
19.09.2018 13:00:00 10,3 9,5 - - 16 9 - - WNW 978,6 7 7,2
19.09.2018 12:00:00 10,8 8,2 - - 28 15 - - E 981,3 40 1,0
19.09.2018 11:00:00 10,4 7,8 - - 15 8 - - SE 986,1 21 0,6
19.09.2018 10:00:00 10,8 6,0 12,7 12,0 22 12 - - S 989,2 35 0,0
19.09.2018 09:00:00 10,6 7,1 - - 8 4 - - S 991,1 50 0,0
19.09.2018 08:00:00 9,5 7,5 - - 11 6 - - S 992,6 50 0,0
19.09.2018 07:00:00 9,6 8,1 - - 13 7 - - SSW 994,0 50 0,0
19.09.2018 06:00:00 5,7 4,4 - - 5 3 - - N 994,1 45 0,0
19.09.2018 05:00:00 8,2 5,9 - - 4 2 - - NE 993,8 50 0,0
19.09.2018 04:00:00 7,7 5,4 - - 9 5 - - WNW 994,1 50 0,0
19.09.2018 03:00:00 8,7 6,5 - - 28 15 68 37 SSW 993,0 40 0,6
19.09.2018 02:00:00 11,4 8,2 - - 34 18 57 31 SSW 992,7 35 0,2
19.09.2018 01:00:00 11,1 8,8 - - 18 10 - - S 992,6 50 0,0
19.09.2018 00:00:00 10,9 9,2 - - 15 8 - - S 993,4 50 0,0
18.09.2018 23:00:00 12,3 10,6 - - 22 12 - - S 993,7 50 0,2
18.09.2018 22:00:00 12,7 11,4 - - 16 9 - - SSW 993,9 45 0,0
18.09.2018 21:00:00 10,8 10,0 - - 9 5 - - SSE 993,8 45 0,0
18.09.2018 20:00:00 11,4 9,6 - - 8 4 - - SW 993,8 50 0,0
18.09.2018 19:00:00 13,6 11,2 - - 8 4 - - W 993,3 50 0,0
18.09.2018 18:00:00 14,4 13,1 - - 16 9 - - SSW 992,5 40 0,0
18.09.2018 17:00:00 13,6 12,8 - - 5 3 - - S 992,0 9 0,4
18.09.2018 16:00:00 13,9 12,8 - - 8 4 - - ESE 991,9 50 0,0
18.09.2018 15:00:00 13,2 12,7 - - 11 6 - - E 991,7 11 1,8
18.09.2018 14:00:00 12,7 12,1 - - 11 6 - - E 992,2 15 0,0
18.09.2018 13:00:00 13,0 12,4 - - 13 7 - - E 992,1 14 0,2
18.09.2018 12:00:00 13,1 12,7 - - 11 6 - - ENE 992,5 2,5 0,2
18.09.2018 11:00:00 13,1 12,6 - - 5 3 - - NNW 993,1 1,8 0,2
18.09.2018 10:00:00 12,9 12,5 12,5 12,0 5 3 - - NNE 993,4 2,7 0,2
18.09.2018 09:00:00 12,9 12,4 - - 9 5 - - N 993,6 7 0,2
18.09.2018 08:00:00 13,2 12,6 - - 13 7 - - WNW 993,6 8 0,6
18.09.2018 07:00:00 13,6 13,0 - - 11 6 - - WNW 993,6 11 0,2
18.09.2018 06:00:00 14,1 13,2 - - 16 9 - - NW 993,6 5 0,0
18.09.2018 05:00:00 15,7 14,2 - - 9 5 - - SW 993,7 50 0,0
18.09.2018 04:00:00 16,2 14,2 - - 24 13 - - S 993,3 50 0,0
18.09.2018 03:00:00 15,9 13,9 - - 16 9 - - S 993,2 50 0,0
18.09.2018 02:00:00 15,7 14,2 - - 13 7 - - SW 993,4 50 0,0
18.09.2018 01:00:00 15,2 14,0 - - 5 3 - - SW 993,5 50 0,2
18.09.2018 00:00:00 15,7 14,4 - - 22 12 - - S 993,0 12 1,4
17.09.2018 23:00:00 15,3 14,1 - - 18 10 - - S 993,0 18 0,4
17.09.2018 22:00:00 14,4 12,6 - - 13 7 - - SE 994,2 25 0,0
17.09.2018 21:00:00 14,6 12,2 - - 16 9 - - SE 994,7 50 0,0
17.09.2018 20:00:00 13,3 11,7 - - 13 7 - - ESE 995,6 50 0,2
17.09.2018 19:00:00 13,8 11,6 - - 13 7 - - SSE 997,1 40 0,0
17.09.2018 18:00:00 13,5 11,4 - - 18 10 - - ESE 998,1 35 0,2
17.09.2018 17:00:00 13,1 11,2 - - 21 11 - - ESE 999,5 40 0,0
17.09.2018 16:00:00 12,9 11,9 - - 16 9 - - SE 1001,5 50 0,4
17.09.2018 15:00:00 13,2 11,4 - - 15 8 - - SSE 1002,8 50 0,4
17.09.2018 14:00:00 13,6 12,0 - - 9 5 - - SSE 1004,1 30 0,2
17.09.2018 13:00:00 13,5 12,3 - - 11 6 - - SSE 1004,6 40 0,0
17.09.2018 12:00:00 12,5 11,9 - - 5 3 - - SE 1005,5 30 0,0
17.09.2018 11:00:00 12,1 11,3 - - 9 5 - - S 1006,5 26 0,4
17.09.2018 10:00:00 12,2 10,6 12,2 12,0 9 5 - - SSW 1006,7 35 0,0
17.09.2018 09:00:00 11,9 10,5 - - 11 6 - - S 1006,7 50 0,0
17.09.2018 08:00:00 11,6 10,3 - - 13 7 - - S 1006,9 50 0,0
17.09.2018 07:00:00 11,1 8,5 - - 18 10 - - SSW 1006,9 1,4 0,0
17.09.2018 06:00:00 10,2 8,0 - - 8 4 - - ESE 1007,3 50 0,0
17.09.2018 05:00:00 9,9 8,0 - - 13 7 - - ESE 1007,2 50 0,0
17.09.2018 04:00:00 10,2 8,5 - - 8 4 - - S 1007,4 50 0,0
17.09.2018 03:00:00 8,7 8,0 - - 13 7 - - S 1007,3 50 0,0
17.09.2018 02:00:00 9,9 8,0 - - 13 7 - - SSW 1007,3 35 0,0
17.09.2018 01:00:00 10,3 7,6 - - 9 5 - - S 1007,5 50 0,0
17.09.2018 00:00:00 9,7 6,6 - - 5 3 - - W 1008,0 50 0,0
16.09.2018 23:00:00 8,1 5,5 - - 8 4 - - SE 1007,5 50 0,0
16.09.2018 22:00:00 10,4 5,8 - - 13 7 - - SW 1008,1 50 0,0
16.09.2018 21:00:00 11,1 6,0 - - 15 8 - - SW 1007,8 50 0,0
16.09.2018 20:00:00 11,4 6,1 - - 28 15 48 26 SW 1007,6 35 0,0
16.09.2018 19:00:00 12,0 5,4 - - 29 16 - - SW 1007,5 50 0,0
16.09.2018 18:00:00 12,2 5,8 - - 22 12 - - SW 1006,7 50 0,0
16.09.2018 17:00:00 13,0 5,1 - - 29 16 50 27 WSW 1006,3 50 0,0
16.09.2018 16:00:00 13,8 5,4 - - 31 17 57 31 WSW 1005,5 45 0,0
16.09.2018 15:00:00 13,8 5,2 - - 29 16 50 27 W 1005,3 30 0,0
16.09.2018 14:00:00 13,8 6,6 - - 35 19 55 30 W 1004,0 30 0,0
16.09.2018 13:00:00 14,4 8,2 - - 26 14 52 28 W 1003,6 45 0,0
16.09.2018 12:00:00 14,6 8,8 - - 29 16 59 32 WSW 1002,4 45 0,0
16.09.2018 11:00:00 16,0 11,0 - - 24 13 59 32 SW 1001,1 45 0,0
16.09.2018 10:00:00 14,2 10,3 12,2 12,0 37 20 57 31 SW 999,9 50 0,0
16.09.2018 09:00:00 13,8 10,7 - - 35 19 46 25 SW 998,8 45 0,0
16.09.2018 08:00:00 13,9 12,5 - - 13 7 - - WSW 998,2 40 0,0
16.09.2018 07:00:00 14,1 12,4 - - 18 10 - - SW 997,1 29 0,0
16.09.2018 06:00:00 13,3 11,0 - - 29 16 - - S 997,0 50 0,0

tt = Température de l'air
td = dewpoint
tt -20cm = Température de l'air -20cm
tt -100cm = Température de l'air -100cm
ff = Vitesse du vent
fx = gusts
dd = Direction du vent
ppp = reduced air pressure
vv = visibility
rr = Quantités de précipitations

stations d'obs. à proximité